GALAXY 3C (G-3C) (27445 NORAD) Tracking and Keplerian Element Data

This shows tracking and keplerian element data for the satellite.

Feedback or suggestion? Click here.




ElementValue
Catalog27445
NameGALAXY 3C (G-3C)
Epoch Orbit2822
Epoch Day171.12434352
Epoch Year2021
RAAN321.228
Inclination0.0165
Eccentricity0.0001638
Argument of Perigee15.6857
Mean Anonmoly241.3583
Mean Motion1.00268972
Decay Rate-1.43E-06
L11 27445U 02030A 21171.12434352 -.00000143 00000-0 00000-0 0 9992
L22 27445 0.0165 321.2280 0001638 15.6857 241.3583 1.00268972 28229

Live tracking and technical data element details for GALAXY 3C (G-3C) (NORAD 27445). GALAXY 3C (G-3C) can be tracked NOW for your location showing map with azimuth and elevation plus other details from your city location.

Track the satellite on the map from your city or location and see movement details for azimuth, elevation, latitude, longitude, range, height, and movement on the map or in text.







IsCatalogInMostPopularTable: catalog: 27445, numindb: 249
Update: records affected: 1



GetName: 27445 GALAXY 3C (G-3C)

Hit Count: updated at: Mon, 21 Jun 2021 10:04:47 GMT